[[{"header":{"parameterUnit":"m.s-1","parameterCategory":1,"la1":30.2991,"la2":30.254,"lo1":-89.0895,"lo2":-89.0444,"dy":0.0017,"dx":0.0017,"nx":28,"ny":28,"refTime":"2025-04-06T09:00:00:Z","depth":0,"parameterNumber":2,"parameterNumberName":"U-component_of_WINDS"},"data":[0,0,0,0,0,0,0,0,0,0,0,0,0,0,0,0,0,0,0,0,0,0,0,0,0,0,0,0,0,0,0,0,0,0,0,0,0,0,0,0,0,0,0,0,0,0,0,0,0,0,0,0,0,0,0,0,0,0,3.1943,3.1945,0,3.2079,3.208,3.2082,3.2085,3.2084,3.2082,3.208,3.2222,3.2227,3.2233,0,0,0,0,0,0,0,0,0,0,0,0,0,3.1691,3.1695,3.1943,3.1945,3.1946,3.2079,3.208,3.2082,3.2086,3.2083,3.2081,3.2079,3.222,3.2227,3.2233,0,0,0,0,0,0,0,0,0,0,0,0,0,3.1811,3.1697,3.1943,3.1964,3.1967,3.2078,3.2081,3.2083,3.2086,3.2083,3.2081,3.2079,3.2218,3.2226,3.2234,3.2334,0,0,3.2258,3.2262,0,0,0,0,0,0,0,0,3.1804,3.182,3.1959,3.1963,3.1966,3.2062,3.2043,3.2167,3.2087,3.2041,3.208,3.2077,3.2171,3.2183,3.2214,3.2341,3.2347,3.2259,3.2264,3.2268,3.227,0,0,0,0,0,0,0,3.1796,3.1814,3.1997,3.1961,3.1966,3.1968,3.1982,3.2067,3.2119,3.2045,3.2045,3.2061,3.2173,3.2206,3.2217,3.2349,3.2259,3.2266,3.2271,3.2274,3.2566,3.2569,0,0,0,0,0,0,3.1783,3.1807,3.1993,3.2001,3.1877,3.1974,3.199,3.2034,3.2118,3.2128,3.2063,3.2061,3.2194,3.2208,3.2222,3.2346,3.2267,3.2275,3.228,3.2563,3.2567,3.257,0,0,0,0,0,0,3.1777,3.1799,3.1987,3.1904,3.1928,3.1981,3.2031,3.2038,3.2072,3.2132,3.2141,3.2088,3.2192,3.2211,3.2306,3.2351,3.2279,3.2286,3.256,3.2564,3.2568,3.2593,0,0,0,0,0,0,3.177,3.1797,3.1835,3.1905,3.1933,3.2068,3.2033,3.2043,3.2085,3.2083,3.2157,3.2167,3.2192,3.2294,3.2314,3.2361,3.2292,3.2556,3.2562,3.2567,3.2589,3.2598,3.2606,0,0,0,0,0,3.1761,3.1837,3.1836,3.1859,3.1981,3.207,3.2086,3.2112,3.2089,3.2128,3.2166,3.2165,3.2343,3.2304,3.2327,3.2376,3.2553,3.256,3.2566,3.2585,3.2596,3.2606,0,0,0,0,0,0,3.1771,3.1846,3.1847,3.1947,3.2002,3.207,3.212,3.2123,3.2187,3.2183,3.2214,3.223,3.2325,3.236,3.2316,3.2478,3.2445,3.2457,3.2452,3.2463,3.2471,3.2461,3.2299,0,0,0,0,0,3.1785,3.185,3.1913,3.1995,3.2023,3.2067,3.2107,3.2122,3.2181,3.2204,3.225,3.2308,3.2377,3.2422,3.2489,3.2594,3.2611,3.2639,3.2647,3.2654,3.2664,3.2724,3.2737,3.2592,3.2592,3.2591,0,0,3.1814,3.1863,3.1903,3.1999,3.2043,3.2111,3.2086,3.2159,3.2211,3.2216,3.2308,3.2344,3.2411,3.2512,3.2558,3.2544,3.2708,3.2663,3.2668,3.2674,3.2732,3.2745,3.2758,3.2596,3.2595,3.2595,0,0,3.1902,3.1946,3.202,3.2065,3.2132,3.2161,3.2179,3.2247,3.2271,3.2364,3.237,3.2432,3.255,3.2597,3.2637,3.2745,3.2746,3.2766,3.2811,3.2868,3.288,3.289,3.293,3.2943,3.2775,3.2775,3.2775,0,3.1931,3.2032,3.2058,3.2131,3.2174,3.2181,3.2257,3.23,3.2386,3.2416,3.2398,3.2547,3.2592,3.2705,3.2731,3.2763,3.2786,3.2757,3.2876,3.2887,3.2897,3.2935,3.2949,3.2777,3.2777,3.2777,3.2777,0,3.2064,3.2135,3.2187,3.2269,3.2318,3.2392,3.243,3.2477,3.2488,3.252,3.2616,3.267,3.2749,3.2777,3.2789,3.2892,3.2881,3.2869,3.2837,3.2912,3.2948,3.2963,3.278,3.2779,3.2779,3.2778,0,0,3.2163,3.2258,3.2277,3.2314,3.239,3.2445,3.2521,3.2597,3.2637,3.2696,3.2761,3.2861,3.2851,3.2897,3.2914,3.2965,3.3048,3.2948,3.295,3.2965,3.3166,3.3175,3.3191,3.3049,3.3052,3.3055,3.3161,0,3.226,3.2392,3.2418,3.2534,3.26,3.2609,3.2675,3.2729,3.276,3.2822,3.2858,3.2929,3.291,3.2937,3.2987,3.3027,3.3089,3.302,3.3111,3.3114,3.3095,3.321,3.3219,3.3317,3.3175,3.3178,3.3179,0,3.239,3.2452,3.2574,3.2642,3.267,3.2729,3.2801,3.286,3.2922,3.2942,3.2993,3.3005,3.3086,3.305,3.3162,3.3114,3.3153,3.3179,3.3183,3.3193,3.3151,3.3224,3.3349,3.3363,3.3202,3.32,3.3198,0,3.2451,3.2565,3.2653,3.2685,3.2765,3.2806,3.2842,3.2902,3.2946,3.301,3.3039,3.3112,3.3152,3.3209,3.3241,3.3212,3.3351,3.3317,3.3371,3.337,3.34,3.3398,3.3533,3.3424,3.3424,3.3424,3.3423,0,3.2557,3.2631,3.2681,3.2735,3.282,3.2849,3.2933,3.2968,3.3021,3.3084,3.3096,3.3155,3.3194,3.3258,3.3284,3.3374,3.3392,3.3411,3.3417,3.341,3.3408,3.3436,3.3431,3.3428,3.3427,3.3426,3.3425,0,3.2638,3.2674,3.2771,3.2839,3.2858,3.2917,3.2977,3.3031,3.3062,3.3141,3.3162,3.3212,3.3289,3.3327,3.3423,3.3441,3.3542,3.3543,3.3521,3.3523,3.3575,3.3569,3.3734,3.3758,3.3632,3.3633,3.3634,0,3.2703,3.2761,3.2835,3.2877,3.2914,3.2982,3.3027,3.3059,3.3106,3.3181,3.3227,3.3304,3.3367,3.349,3.3536,3.361,3.3614,3.3667,3.3625,3.3617,3.3616,3.3612,3.3619,3.3674,3.3675,3.3676,3.3677,0,3.2816,3.2831,3.2895,3.2966,3.302,3.3077,3.3134,3.3169,3.321,3.3262,3.3341,3.339,3.3488,3.3565,3.3642,3.368,3.3687,3.369,3.3706,3.37,3.3685,3.3695,3.3541,3.3686,3.3685,3.3684,3.3684,3.3684,3.2892,3.2944,3.3005,3.3076,3.3122,3.3175,3.3229,3.3268,3.3333,3.3414,3.343,3.3513,3.3576,3.368,3.3721,3.3788,3.3776,3.3799,3.3806,3.3811,3.3814,3.3673,3.3802,3.3801,3.3801,3.3801,3.3801,0,3.3006,3.3046,3.3111,3.319,3.3246,3.3246,3.3309,3.3357,3.343,3.3487,3.3549,3.364,3.3715,3.3767,3.3844,3.3887,3.3892,3.3907,3.3904,3.3913,3.382,3.3798,3.3901,3.3901,3.3901,3.3901,3.3901,3.3901,3.3072,3.316,3.3183,3.3295,3.3334,3.3415,3.3451,3.3501,3.3546,3.3647,3.3709,3.3742,3.3798,3.3879,3.3948,3.3962,3.399,3.4005,3.4018,3.393,3.3919,3.3909,3.3889,3.401,3.401,3.4106,3.4107,3.4108]},{"header":{"parameterUnit":"m.s-1","parameterCategory":1,"la1":30.2991,"la2":30.254,"lo1":-89.0895,"lo2":-89.0444,"dy":0.0017,"dx":0.0017,"nx":28,"ny":28,"refTime":"2025-04-06T09:00:00:Z","depth":0,"parameterNumber":3,"parameterNumberName":"V-component_of_WINDS"},"data":[0,0,0,0,0,0,0,0,0,0,0,0,0,0,0,0,0,0,0,0,0,0,0,0,0,0,0,0,0,0,0,0,0,0,0,0,0,0,0,0,0,0,0,0,0,0,0,0,0,0,0,0,0,0,0,0,0,0,-6.5965,-6.5967,0,-6.6152,-6.6154,-6.6156,-6.6132,-6.6129,-6.6126,-6.6123,-6.6308,-6.6316,-6.6324,0,0,0,0,0,0,0,0,0,0,0,0,0,-6.558,-6.5587,-6.5964,-6.5967,-6.5969,-6.6152,-6.6154,-6.6157,-6.6133,-6.6129,-6.6125,-6.6122,-6.6306,-6.6315,-6.6324,0,0,0,0,0,0,0,0,0,0,0,0,0,-6.5755,-6.5589,-6.5964,-6.5979,-6.5982,-6.6151,-6.6154,-6.6158,-6.6133,-6.6129,-6.6124,-6.612,-6.6303,-6.6314,-6.6326,-6.6489,0,0,-6.6361,-6.6366,0,0,0,0,0,0,0,0,-6.5745,-6.5769,-6.5975,-6.5978,-6.5982,-6.6114,-6.6087,-6.6268,-6.6135,-6.6076,-6.6123,-6.6118,-6.6247,-6.6263,-6.6308,-6.6498,-6.6506,-6.6362,-6.6369,-6.6374,-6.6378,0,0,0,0,0,0,0,-6.5733,-6.5761,-6.6038,-6.5978,-6.5982,-6.5975,-6.5995,-6.6121,-6.6185,-6.6081,-6.6079,-6.6102,-6.6248,-6.6297,-6.6312,-6.6508,-6.6362,-6.6372,-6.638,-6.6384,-6.6842,-6.6847,0,0,0,0,0,0,-6.5718,-6.5751,-6.6032,-6.6044,-6.585,-6.5986,-6.6008,-6.6076,-6.6183,-6.6195,-6.6106,-6.6101,-6.6279,-6.6299,-6.6319,-6.6517,-6.6374,-6.6385,-6.6392,-6.6837,-6.6843,-6.6849,0,0,0,0,0,0,-6.5709,-6.5743,-6.6025,-6.5897,-6.5933,-6.5997,-6.6074,-6.6082,-6.6131,-6.6203,-6.6213,-6.6144,-6.6276,-6.6302,-6.6447,-6.6523,-6.6391,-6.6401,-6.6831,-6.6839,-6.6846,-6.6915,0,0,0,0,0,0,-6.5698,-6.574,-6.5804,-6.5899,-6.594,-6.6152,-6.6079,-6.6089,-6.6152,-6.6147,-6.6241,-6.6252,-6.6275,-6.643,-6.6459,-6.6537,-6.641,-6.6824,-6.6834,-6.6843,-6.6906,-6.6924,-6.6939,0,0,0,0,0,-6.5685,-6.5814,-6.5807,-6.5842,-6.6021,-6.6157,-6.618,-6.6205,-6.6158,-6.6222,-6.6268,-6.6249,-6.6511,-6.6445,-6.6478,-6.656,-6.6819,-6.6831,-6.6843,-6.6899,-6.692,-6.6939,0,0,0,0,0,0,-6.5724,-6.5827,-6.582,-6.5985,-6.6063,-6.6153,-6.6234,-6.6227,-6.6318,-6.6308,-6.6334,-6.6355,-6.6502,-6.6546,-6.6471,-6.6724,-6.6658,-6.6677,-6.669,-6.6711,-6.6727,-6.6713,-6.642,0,0,0,0,0,-6.5752,-6.5856,-6.594,-6.6077,-6.6116,-6.6169,-6.6229,-6.6242,-6.6322,-6.6354,-6.641,-6.6488,-6.6587,-6.6652,-6.6747,-6.6913,-6.6932,-6.6985,-6.7002,-6.7015,-6.703,-6.7121,-6.7145,-6.6887,-6.6887,-6.6886,0,0,-6.581,-6.588,-6.5943,-6.6086,-6.6148,-6.6253,-6.6196,-6.6309,-6.6387,-6.637,-6.6512,-6.6556,-6.6644,-6.68,-6.6872,-6.6841,-6.7107,-6.703,-6.704,-6.7048,-6.7136,-6.716,-6.7182,-6.6895,-6.6893,-6.6892,0,0,-6.597,-6.6034,-6.6155,-6.6219,-6.6314,-6.6349,-6.6378,-6.647,-6.65,-6.6642,-6.6632,-6.6724,-6.6895,-6.6958,-6.7012,-6.7199,-6.7184,-6.7229,-6.7315,-6.7403,-6.7423,-6.7441,-6.7507,-6.753,-6.7244,-6.7244,-6.7244,0,-6.603,-6.619,-6.6218,-6.6334,-6.6396,-6.6389,-6.6511,-6.6571,-6.6692,-6.6734,-6.6699,-6.6914,-6.6972,-6.7143,-6.7189,-6.7234,-6.7267,-6.7217,-6.7419,-6.7437,-6.7454,-6.7517,-6.7542,-6.7249,-6.7248,-6.7248,-6.7248,0,-6.6259,-6.637,-6.6456,-6.6576,-6.6648,-6.6766,-6.681,-6.6881,-6.6888,-6.6925,-6.7071,-6.7141,-6.7251,-6.7293,-6.73,-6.7465,-6.7443,-6.7413,-6.7347,-6.7483,-6.7543,-6.7567,-6.7256,-6.7254,-6.7253,-6.7251,0,0,-6.6446,-6.6582,-6.6613,-6.6667,-6.6773,-6.6858,-6.6976,-6.7086,-6.7145,-6.7229,-6.7327,-6.7473,-6.7447,-6.7508,-6.7522,-6.76,-6.7743,-6.7561,-6.7563,-6.7591,-6.7928,-6.7949,-6.7977,-6.7735,-6.774,-6.7743,-6.7921,0,-6.6615,-6.6826,-6.6855,-6.704,-6.7143,-6.7139,-6.7241,-6.7316,-6.7355,-6.7446,-6.7488,-6.7591,-6.7549,-6.7586,-6.7663,-6.7709,-6.781,-6.7697,-6.7824,-6.7829,-6.7801,-6.8008,-6.803,-6.8194,-6.7944,-6.7948,-6.7951,0,-6.6841,-6.6934,-6.713,-6.7223,-6.7267,-6.7359,-6.7462,-6.755,-6.7635,-6.7657,-6.7728,-6.7733,-6.7853,-6.7785,-6.795,-6.7872,-6.7926,-6.7957,-6.7964,-6.7975,-6.7897,-6.8024,-6.8247,-6.8271,-6.7988,-6.7985,-6.7982,0,-6.6956,-6.7131,-6.7271,-6.7318,-6.7429,-6.7494,-6.7543,-6.7624,-6.7688,-6.7779,-6.782,-6.7922,-6.7978,-6.8056,-6.8088,-6.8035,-6.8251,-6.8185,-6.8272,-6.8271,-6.8316,-6.8312,-6.855,-6.8353,-6.8353,-6.8353,-6.8352,0,-6.7142,-6.7261,-6.7325,-6.741,-6.7545,-6.7577,-6.7708,-6.7754,-6.7827,-6.792,-6.7923,-6.801,-6.8048,-6.8141,-6.8167,-6.8299,-6.8324,-6.8345,-6.835,-6.8344,-6.8341,-6.8378,-6.8367,-6.8359,-6.8358,-6.8356,-6.8355,0,-6.7292,-6.734,-6.7492,-6.7587,-6.7614,-6.7708,-6.7788,-6.7871,-6.791,-6.8028,-6.8058,-6.8118,-6.8228,-6.8269,-6.8402,-6.8419,-6.8572,-6.8569,-6.8544,-6.8545,-6.8629,-6.862,-6.8898,-6.8935,-6.8715,-6.8717,-6.8719,0,-6.7407,-6.7499,-6.7605,-6.7669,-6.7722,-6.7825,-6.7892,-6.7927,-6.7996,-6.8101,-6.8171,-6.8281,-6.837,-6.8546,-6.86,-6.8702,-6.87,-6.879,-6.8715,-6.8706,-6.87,-6.8694,-6.8703,-6.8803,-6.8806,-6.8808,-6.8809,0,-6.7604,-6.7624,-6.7721,-6.7828,-6.7908,-6.7993,-6.8075,-6.8127,-6.8174,-6.8252,-6.8366,-6.8436,-6.8573,-6.8682,-6.8787,-6.8835,-6.883,-6.8833,-6.8858,-6.8852,-6.8834,-6.8844,-6.8581,-6.8826,-6.8824,-6.8823,-6.8822,-6.8821,-6.7739,-6.7822,-6.791,-6.8018,-6.8085,-6.8162,-6.8245,-6.8295,-6.8392,-6.8508,-6.8523,-6.8645,-6.8728,-6.8869,-6.8922,-6.9017,-6.8992,-6.9029,-6.9038,-6.9046,-6.9052,-6.8821,-6.9036,-6.9036,-6.9035,-6.9035,-6.9035,0,-6.7936,-6.7993,-6.8093,-6.8209,-6.8295,-6.8286,-6.8377,-6.8448,-6.8556,-6.8635,-6.8725,-6.8856,-6.8962,-6.9026,-6.9132,-6.9195,-6.9196,-6.9222,-6.9217,-6.9228,-6.9068,-6.9035,-6.922,-6.922,-6.922,-6.922,-6.922,-6.922,-6.8048,-6.8187,-6.8217,-6.8389,-6.8444,-6.8566,-6.8619,-6.869,-6.8753,-6.89,-6.8989,-6.9032,-6.9105,-6.9216,-6.9313,-6.9329,-6.9367,-6.9396,-6.9409,-6.9258,-6.9239,-6.9221,-6.919,-6.9404,-6.9404,-6.9561,-6.9562,-6.9563]}]]